Location: *
(46.1833°N, 22.7667°E)
Time: 01:54:49
(UTC+00:00)

Cosmos 2360 Rocket - Pass Details

Date: 17 September 2019
Orbit: 833 x 846 km, 71.0° (Epoch: 18 October)

Event Time Altitude Azimuth Distance (km) Brightness Sun altitude
Rises 17:19:32 0° 329° (NNW) 3,402 6.1 -8.1°
Reaches altitude 10° 17:22:02 10° 324° (NW) 2,465 5.4 -8.5°
Maximum altitude 17:27:27 48° 251° (WSW) 1,085 3.2 -9.4°
Drops below altitude 10° 17:32:51 10° 178° (S) 2,457 4.5 -10.3°
Sets 17:35:21 0° 173° (S) 3,389 5.1 -10.7°
